Home > Weather > Ivalo > Past weeks

Flag for Finland Weather for the Past 2 Weeks in Ivalo, Finland

Now
23 °F

Snow. Overcast.


Feels Like: 11 °F
Forecast: 25 / 30 °F
Wind: 13 mph from Northeast

Location: Ivalo

Current Time: Feb 12, 2016 at 8:52:42 PM

Latest Report: Feb 12, 2016 at 8:20 PM


Visibility: 1 mi

Pressure: 29.68 "Hg

Humidity: 93%

Dew point: 21 °F

Location of IvaloLocation

Historic Weather in Ivalo — Graph

°F

Ivalo Temperature Yesterday

Maximum temperature yesterday: 34 °F (at 12:50 PM)
Minimum temperature yesterday: 27 °F (at 11:20 PM)
Average temperature yesterday: 31 °F

High & Low Weather Summary for the Past Weeks

 TemperatureHumidityPressure
High34 °F (Feb 9, 6:50 PM)100% (Jan 31, 12:50 AM)29.71 "Hg (Jan 31, 12:50 AM)
Low-4 °F (Jan 29, 10:20 AM)84% (Jan 28, 11:50 PM)28.56 "Hg (Jan 30, 8:50 PM)
Average20 °F93%29.01 "Hg
* Reported Jan 28 7:20 PM — Feb 12 7:20 PM, Ivalo, Weather by CustomWeather, © 2016

Note: Actual official high and low records may vary slightly from our data, if they occured in-between our weather recording intervals... More about our weather records

Advertising

Ivalo Weather History for the Previous 24 Hours

 ConditionsComfort  
Time TempWeatherWind HumidityBarometerVisibility
7:20 PM
Fri, Feb 12
23 °FSnow. Overcast.13 mph93%29.71 "Hg1 mi
6:50 PM23 °FSnow. Overcast.13 mph93%29.71 "Hg1 mi
6:20 PM23 °FSnow. Overcast.14 mph93%29.71 "Hg1 mi
5:50 PM25 °FSnow. Overcast.13 mph86%29.71 "Hg1 mi
4:50 PM25 °FLight snow. Overcast.14 mph86%29.71 "Hg1 mi
4:20 PM25 °FLight snow. Overcast.12 mph86%29.71 "Hg1 mi
3:50 PM25 °FLight snow. Overcast.15 mph86%29.71 "Hg1 mi
3:20 PM25 °FLight snow. Overcast.14 mph86%29.71 "Hg1 mi
2:50 PM25 °FLight snow. Overcast.14 mph86%29.71 "Hg1 mi
2:20 PM25 °FLight snow. Overcast.13 mph86%29.71 "Hg1 mi
1:50 PM25 °FLight snow. Overcast.13 mph93%29.71 "Hg1 mi
1:20 PM25 °FLight snow. Ice fog.12 mph93%29.71 "Hg1 mi
12:50 PM27 °FLight snow. Ice fog.12 mph86%29.71 "Hg1 mi
12:20 PM27 °FLight snow. Ice fog.9 mph93%29.71 "Hg2 mi
11:50 AM27 °FLight snow. Ice fog.12 mph93%29.68 "Hg1 mi
11:20 AM27 °FLight snow. Overcast.9 mph93%29.68 "Hg2 mi
10:50 AM28 °FLight snow. Overcast.7 mph93%29.68 "Hg4 mi
10:20 AM28 °FLight snow. Overcast.8 mph93%29.65 "Hg3 mi
9:50 AM28 °FLight snow. More clouds than sun.7 mph93%29.65 "Hg4 mi
9:20 AM28 °FLight snow. Overcast.7 mph100%29.62 "Hg2 mi
8:50 AM27 °FSnow. Overcast.3 mph100%29.62 "Hg1 mi
8:20 AM27 °FLight snow. Overcast.2 mph93%29.62 "Hg2 mi
7:50 AM25 °FLight snow. Overcast.No wind100%29.62 "Hg4 mi
7:20 AM25 °FLight snow. Ice fog.No wind93%29.59 "Hg1 mi
6:50 AM25 °FLight snow. Overcast.No wind93%29.59 "Hg4 mi
6:20 AM25 °FMostly cloudy.No wind93%29.56 "HgN/A
5:50 AM25 °FMostly cloudy.No wind93%29.56 "HgN/A
5:20 AM25 °FMostly cloudy.1 mph93%29.56 "HgN/A
4:50 AM25 °FOvercast.No wind93%29.53 "HgN/A
4:20 AM25 °FOvercast.No wind93%29.53 "HgN/A
3:50 AM25 °FOvercast.2 mph93%29.50 "HgN/A
3:20 AM25 °FOvercast.2 mph93%29.50 "HgN/A
2:50 AM23 °FOvercast.2 mph93%29.50 "HgN/A
2:20 AM23 °FOvercast.2 mph93%29.47 "HgN/A
1:50 AM25 °FSnow flurries. Overcast.2 mph93%29.47 "HgN/A
1:20 AM25 °FPassing clouds.No wind93%29.45 "HgN/A
12:50 AM27 °FLight snow. Overcast.No wind93%29.45 "Hg4 mi
11:50 PM
Thu, Feb 11
27 °FLight snow. Low clouds.2 mph100%29.42 "Hg2 mi
11:20 PM27 °FLight snow. Mostly cloudy.No wind100%29.42 "Hg1 mi
10:50 PM28 °FLight freezing rain. Overcast.No wind93%29.39 "Hg2 mi
10:20 PM28 °FSnow. Overcast.1 mph100%29.39 "Hg2 mi
9:50 PM28 °FSnow. Overcast.2 mph100%29.39 "Hg1 mi
9:20 PM28 °FSnow. Overcast.1 mph100%29.36 "Hg1 mi
8:50 PM28 °FLight snow. Overcast.1 mph100%29.36 "Hg1 mi
8:20 PM30 °FLight snow. Overcast.1 mph93%29.36 "Hg3 mi
Weather by CustomWeather, © 2016

See weather overviewHow to use our weather pages